Tracking 28790 objects as of 18-Apr-2024
HD Live streaming from Space Station
objects crossing your sky now

OPS 4682 DEB

Track OPS 4682 DEB now!
10-day predictions


NORAD ID: 38391
Int'l Code: 1965-027CU
Perigee: 1,245.5 km
Apogee: 1,310.4 km
Inclination: 90.2 °
Period: 111.0 minutes
Semi major axis: 7648 km
RCS: 0.0056 m2 (small)
Launch date: April 3, 1965
Source: United States (US)
Launch site: AIR FORCE WESTERN TEST RANGE (AFWTR)

Note: This is SATELLITE DEBRIS
Your satellite tracking list
Your tracking list is empty




NASA's NSSDC Master Catalog

Two Line Element Set (TLE):
1 38391U 65027CU  24104.14037918  .00000810  00000-0  27440-2 0  9996
2 38391  90.2276 351.7002 0042442 352.3931   7.6541 12.97778002893873
Source of the keplerian elements: AFSPC